User: anonymous   Login
Location: Unspecified
(0.0000°N, 0.0000°E)
Time: 02:59:28
(UTC+00:00)
Language:

FORMOSAT 3C - Orbit

View from above orbital plane
View from above orbital plane
View from above satellite
View from above satellite

Ground track
Ground track

The orbit data is extracted from the following two-line orbital elements,

1 29049U 06011C   17232.22404469 +.00000072 +00000-0 +44854-4 0  9996
2 29049 072.0206 134.4247 0034325 031.5550 328.7635 14.28579907592174
Epoch (UTC): 20 August 2017 05:22:37
Eccentricity: 0.0034325
inclination: 72.0206°
perigee height: 772 km
apogee height: 821 km
right ascension of ascending node: 134.4247°
argument of perigee: 31.5550°
revolutions per day: 14.28579907
mean anomaly at epoch: 328.7635°
orbit number at epoch: 59217

The dashed part of the orbit path shows where the satellite is in the earth's shadow,  

DLR